
10:23:36 PM 611 Monday, June 22, 2020  Message :- Start Log.....!!!

windowsName : Windows 10 Home
version : 6.3
build : 19042
Product ID : 1814
64 Bit operating system? : Yes
===========================================Start==========================================
Caption : Intel64 Family 6 Model 142 Stepping 9
CreationClassName : Win32_Processor
CurrentClockSpeed : 2900
CurrentVoltage : 8
Manufacturer : GenuineIntel
MaxClockSpeed : 2901
Name : Intel(R) Core(TM) i7-7500U CPU @ 2.70GHz
NumberOfCores : 2
NumberOfLogicalProcessors : 4
PowerManagementSupported : False
Status : OK
=========================================END============================================

11:18:14 74 05 October 2021  Message :- Save call Start

11:18:14 614 05 October 2021  Message :- Zip Start AD

11:18:14 819 05 October 2021  Message :- Zip End

11:18:19 55 05 October 2021  Message :- get Download paramenter 1st time

11:18:19 536 05 October 2021  Message :- start vishal task

11:18:20 530 05 October 2021  Message :- end vishal task

11:18:20 550 05 October 2021  Message :- first time download

11:18:20 572 05 October 2021  Message :-  Done version

11:18:20 572 05 October 2021  Message :-  start Port

11:18:20 572 05 October 2021  Message :-  Got Port

11:18:20 573 05 October 2021  Message :- start opening port

11:18:20 573 05 October 2021  Message :- port open 

11:18:20 573 05 October 2021  Message :- Done ctor, start event instialize

11:18:20 574 05 October 2021  Message :-  open call

11:18:20 580 05 October 2021  Message :- close hota open kela done 

11:18:20 581 05 October 2021  Message :-  open call end ,  start Port Done in PP3 class

11:18:20 605 05 October 2021  Message :-  sent 1st

11:18:20 820 05 October 2021  Message :-  Got 1

11:18:20 945 05 October 2021  Message :-  started sending Application

11:18:20 948 05 October 2021  Message :- Start 0%

11:18:20 949 05 October 2021  Message :- Zip file code started.

11:18:20 953 05 October 2021  Message :- 1st response 221

11:18:21 7 05 October 2021  Message :- 2nd response 221

11:18:21 274 05 October 2021  Message :- Project response 221 Completed :) 

11:18:21 298 05 October 2021  Message :- port Exist and it is Closed

11:18:21 298 05 October 2021  Message :- End 100%

11:19:41 792 05 October 2021  Message :- Save call Start

11:19:42 327 05 October 2021  Message :- Zip Start AD

11:19:42 402 05 October 2021  Message :- Zip End

11:19:46 239 05 October 2021  Message :- get Download paramenter 1st time

11:19:46 720 05 October 2021  Message :- start vishal task

11:19:47 330 05 October 2021  Message :- end vishal task

11:19:47 354 05 October 2021  Message :- first time download

11:19:47 369 05 October 2021  Message :-  Done version

11:19:47 369 05 October 2021  Message :-  start Port

11:19:47 369 05 October 2021  Message :-  Got Port

11:19:47 369 05 October 2021  Message :- start opening port

11:19:47 370 05 October 2021  Message :- port open 

11:19:47 370 05 October 2021  Message :- Done ctor, start event instialize

11:19:47 370 05 October 2021  Message :-  open call

11:19:47 375 05 October 2021  Message :- close hota open kela done 

11:19:47 376 05 October 2021  Message :-  open call end ,  start Port Done in PP3 class

11:19:47 399 05 October 2021  Message :-  sent 1st

11:19:47 604 05 October 2021  Message :-  Got 1

11:19:47 729 05 October 2021  Message :-  started sending Application

11:19:47 731 05 October 2021  Message :- Zip file code started.

11:19:47 734 05 October 2021  Message :- 1st response 221

11:19:47 793 05 October 2021  Message :- 2nd response 221

11:19:48 100 05 October 2021  Message :- Project response 221 Completed :) 

11:19:48 125 05 October 2021  Message :- port Exist and it is Closed

11:19:48 126 05 October 2021  Message :- End 100%

11:27:24 851 05 October 2021  Message :- Save call Start

11:27:25 475 05 October 2021  Message :- Zip Start AD

11:27:25 551 05 October 2021  Message :- Zip End

11:27:27 184 05 October 2021  Message :- get Download paramenter 1st time

11:27:27 675 05 October 2021  Message :- start vishal task

11:27:28 342 05 October 2021  Message :- end vishal task

11:27:28 364 05 October 2021  Message :- first time download

11:27:28 376 05 October 2021  Message :-  Done version

11:27:28 376 05 October 2021  Message :-  start Port

11:27:28 376 05 October 2021  Message :-  Got Port

11:27:28 376 05 October 2021  Message :- start opening port

11:27:28 376 05 October 2021  Message :- port open 

11:27:28 377 05 October 2021  Message :- Done ctor, start event instialize

11:27:28 377 05 October 2021  Message :-  open call

11:27:28 383 05 October 2021  Message :- close hota open kela done 

11:27:28 384 05 October 2021  Message :-  open call end ,  start Port Done in PP3 class

11:27:28 407 05 October 2021  Message :-  sent 1st

11:27:28 613 05 October 2021  Message :-  Got 1

11:27:28 755 05 October 2021  Message :-  started sending Application

11:27:28 756 05 October 2021  Message :- Zip file code started.

11:27:28 769 05 October 2021  Message :- 1st response 221

11:27:28 834 05 October 2021  Message :- 2nd response 221

11:27:29 139 05 October 2021  Message :- Project response 221 Completed :) 

11:27:29 164 05 October 2021  Message :- port Exist and it is Closed

11:27:29 164 05 October 2021  Message :- End 100%

13:53:43 373 05 October 2021  Message :- Save call Start

13:53:43 930 05 October 2021  Message :- Zip Start AD

13:53:44 7 05 October 2021  Message :- Zip End

13:53:45 231 05 October 2021  Message :- get Download paramenter 1st time

13:53:45 684 05 October 2021  Message :- start vishal task

13:53:46 306 05 October 2021  Message :- end vishal task

13:53:46 328 05 October 2021  Message :- first time download

13:53:46 341 05 October 2021  Message :-  Done version

13:53:46 341 05 October 2021  Message :-  start Port

13:53:46 342 05 October 2021  Message :-  Got Port

13:53:46 342 05 October 2021  Message :- start opening port

13:53:46 342 05 October 2021  Message :- port open 

13:53:46 342 05 October 2021  Message :- Done ctor, start event instialize

13:53:46 343 05 October 2021  Message :-  open call

13:53:46 350 05 October 2021  Message :- close hota open kela done 

13:53:46 350 05 October 2021  Message :-  open call end ,  start Port Done in PP3 class

13:53:46 376 05 October 2021  Message :-  sent 1st

13:53:46 592 05 October 2021  Message :-  Got 1

13:53:46 717 05 October 2021  Message :-  started sending Application

13:53:46 718 05 October 2021  Message :- Zip file code started.

13:53:46 722 05 October 2021  Message :- 1st response 221

13:53:46 780 05 October 2021  Message :- 2nd response 221

13:53:47 84 05 October 2021  Message :- Project response 221 Completed :) 

13:53:47 110 05 October 2021  Message :- port Exist and it is Closed

13:53:47 110 05 October 2021  Message :- End 100%

windowsName : Windows 10 Home
version : 6.3
build : 19042
Product ID : 1814
64 Bit operating system? : Yes
===========================================Start==========================================
Caption : Intel64 Family 6 Model 142 Stepping 9
CreationClassName : Win32_Processor
CurrentClockSpeed : 2900
CurrentVoltage : 8
Manufacturer : GenuineIntel
MaxClockSpeed : 2901
Name : Intel(R) Core(TM) i7-7500U CPU @ 2.70GHz
NumberOfCores : 2
NumberOfLogicalProcessors : 4
PowerManagementSupported : False
Status : OK
=========================================END============================================

17:29:30 899 05 October 2021  Message :- Save call Start

17:29:31 633 05 October 2021  Message :- Zip Start AD

17:29:31 704 05 October 2021  Message :- Zip End

17:29:34 168 05 October 2021  Message :- get Download paramenter 1st time

17:29:34 678 05 October 2021  Message :- start vishal task

17:29:35 543 05 October 2021  Message :- end vishal task

17:29:35 561 05 October 2021  Message :- first time download

17:29:35 577 05 October 2021  Message :-  Done version

17:29:35 577 05 October 2021  Message :-  start Port

17:29:35 577 05 October 2021  Message :-  Got Port

17:29:35 578 05 October 2021  Message :- start opening port

17:29:35 578 05 October 2021  Message :- port open 

17:29:35 578 05 October 2021  Message :- Done ctor, start event instialize

17:29:35 579 05 October 2021  Message :-  open call

17:29:35 584 05 October 2021  Message :- close hota open kela done 

17:29:35 585 05 October 2021  Message :-  open call end ,  start Port Done in PP3 class

17:29:35 612 05 October 2021  Message :-  sent 1st

17:29:35 826 05 October 2021  Message :-  Got 1

17:29:35 950 05 October 2021  Message :-  started sending Application

17:29:35 953 05 October 2021  Message :- Start 0%

17:29:35 954 05 October 2021  Message :- Zip file code started.

17:29:35 960 05 October 2021  Message :- 1st response 221

17:29:36 14 05 October 2021  Message :- 2nd response 221

17:29:36 228 05 October 2021  Message :- Project response 221 Completed :) 

17:29:36 250 05 October 2021  Message :- port Exist and it is Closed

17:29:36 250 05 October 2021  Message :- End 100%
